Home > Weather > Wels > Past weeks

Flag for Austria Past Weather in Wels, Upper Austria, Austria — Yesterday and Last 2 Weeks

Now
77 °F

Partly sunny.


Feels Like: 79 °F
Forecast: 63 / 83 °F
Wind: 6 mph from West

Location: Linz / Hoersching-Flughafen

Current Time: Jul 29, 2016 at 2:14:47 PM

Latest Report: Jul 29, 2016 at 1:00 PM


Visibility: 15 mi

Pressure: 29.97 "Hg

Humidity: 55%

Dew Point: 60 °F

Location of WelsLocation

Past Weather in Wels — Graph

°F

Wels Temperature Yesterday

Maximum temperature yesterday: 77 °F (at 6:00 PM)
Minimum temperature yesterday: 64 °F (at 5:00 AM)
Average temperature yesterday: 68 °F

High & Low Weather Summary for the Past Weeks

 TemperatureHumidityPressure
High85 °F (Jul 23, 5:00 PM)98% (Jul 29, 1:00 AM)30.30 "Hg (Jul 29, 1:00 AM)
Low51 °F (Jul 15, 4:00 AM)36% (Jul 20, 5:00 PM)29.89 "Hg (Jul 22, 6:00 PM)
Average68 °F77%30.07 "Hg
* Reported Jul 14 12:00 PM — Jul 29 12:00 PM, Wels, Weather by CustomWeather, © 2016

Note: Actual official high and low records may vary slightly from our data, if they occured in-between our weather recording intervals... More about our weather records

Advertising

Wels Weather History for the Previous 24 Hours

Scroll right to see more
 ConditionsComfort  
Time TempWeatherWind HumidityBarometerVisibility
12:00 PM
Fri, Jul 29
74 °FScattered clouds.6 mph67%29.99 "Hg16 mi
11:00 AM70 °FPartly sunny.N/A77%30.01 "Hg12 mi
10:00 AM69 °FPartly sunny.6 mph78%30.02 "Hg11 mi
9:00 AM65 °FScattered clouds.N/A88%30.02 "Hg6 mi
8:00 AM63 °FLow clouds.N/A94%30.02 "Hg4 mi
7:00 AM62 °FSprinkles. Low clouds.N/A94%30.02 "Hg1 mi
6:00 AM59 °FScattered clouds.N/A98%30.02 "Hg1 mi
5:00 AM60 °FPassing clouds.N/A96%30.01 "Hg4 mi
4:00 AM60 °FPassing clouds.N/A97%30.01 "Hg4 mi
2:00 AM61 °FCool.N/A93%30.01 "Hg11 mi
1:00 AM62 °FMild.N/A98%30.01 "Hg4 mi
12:00 AM64 °FPassing clouds.N/A95%30.01 "Hg8 mi
11:00 PM
Thu, Jul 28
65 °FOvercast.N/A90%30.01 "Hg25 mi
10:00 PM65 °FPassing clouds.N/A90%30.02 "Hg19 mi
9:00 PM65 °FPassing clouds.N/A90%30.01 "Hg22 mi
8:00 PM72 °FSprinkles. Overcast.5 mph63%30.00 "Hg1 mi
7:00 PM77 °FPartly sunny.N/A53%29.97 "Hg28 mi
6:00 PM77 °FPartly sunny.N/A54%29.96 "Hg22 mi
5:00 PM76 °FPartly sunny.N/A58%29.98 "Hg19 mi
4:00 PM75 °FScattered clouds.N/A63%29.99 "Hg19 mi
2:00 PM72 °FScattered clouds.N/A70%30.03 "Hg12 mi
Weather by CustomWeather, © 2016

See weather overviewHow to use our weather pages